sat.trackr.live / text

‹ back to catalog

STARLINK-34390

NORAD 64666 · 2025-139C

PAYLOAD ACTIVE UNKNOWN

§ Identity

Operator
Country
US
Launch date
2025-06-28
Launch site
AFETR
Launch vehicle
Mass (kg)
RCS (m²)

Purposes: comms

External: N2YO · Heavens-Above · Gunter

§ Orbital elements

Epoch: 2026-09-20T19:26:52.134432Z

Period
93.85 min
Inclination
53.1612°
Eccentricity
0.0001229
Mean motion
15.34394686 rev/d
Perigee alt
461.9 km
Apogee alt
463.6 km
Semi-major
6,840.9 km
B*
4.9678e-4
RAAN
296.0673°
Arg perigee
81.4339°
Mean anomaly
278.6803°
Rev number
7,028

§ Raw data

STARLINK-343901 64666U 25139C   26263.81032563  .00016442  00000+0  49678-3 0  99982 64666  53.1612 296.0673 0001229  81.4339 278.6803 15.34394686 70283

JSON: /api/v1/satellites/64666 · /tle

For live sub-satellite position, see the globe view (requires WebGL).

§ Visibility from observer

Set your observer location to see the next 7 days of passes ≥ 10°. The values pass through the URL so the page stays shareable.

No JS? Fill the form by hand. The geolocation button needs JavaScript.